Detroit Metro, MI

5:03 PM EDT on July 27, 2017 (GMT -0400)
Detroit Metro Wayne County

Weather History for KDTW - July, 2014

Change the Weather History Date:

Sunday, July 13, 2014

  Actual Average Record
Temperature  
Mean Temperature 77 °F 74 °F  
Max Temperature 85 °F 84 °F 102 °F (1936)
Min Temperature 68 °F 64 °F 48 °F (1976)
Degree Days  
Heating Degree Days 0 0  
Month to date heating degree days 0 0  
Since 1 June heating degree days 12 35  
Since 1 July heating degree days 0 0  
Cooling Degree Days 12 9  
Month to date cooling degree days 86 114  
Year to date cooling degree days 335 329  
Since 1 June cooling degree days 271 281  
Growing Degree Days 28 (Base 50)    
Moisture  
Dew Point 65 °F    
Average Humidity 69    
Maximum Humidity 93    
Minimum Humidity 45    
Precipitation  
Precipitation 0.04 in 0.10 in 1.48 in (1914)
Month to date precipitation 1.11 1.33  
Year to date precipitation 19.78 17.39  
Snow  
Snow 0.00 in 0.00 in 0.00 in ()
Month to date snowfall 0.0 0.0  
Since 1 June snowfall 0.0 0.0  
Since 1 July snowfall 0.0 0.0  
Snow Depth 0.00 in    
Sea Level Pressure  
Sea Level Pressure 29.85 in    
Wind  
Wind Speed 11 mph (SW)    
Max Wind Speed 21 mph    
Max Gust Speed 29 mph    
Visibility 8 miles    
Events Rain    
T = Trace of Precipitation, MM = Missing Value Source: NWS Daily Summary

Daily Weather History Graph

Daily Weather History Graph

Search for Another Location

Airport or City:

Trip Planner

Search our weather history database for the weather conditions in past years. The results will help you decide how hot, cold, wet, or windy it might be!

Date:

Astronomy

Jul. 13, 2014 Rise Set
Actual Time 6:08 AM EDT 9:09 PM EDT
Civil Twilight 5:35 AM EDT 9:42 PM EDT
Nautical Twilight 4:52 AM EDT 10:25 PM EDT
Astronomical Twilight 4:01 AM EDT 11:15 PM EDT
Moon 9:53 PM EDT (7/13) 7:40 AM EDT (7/13)
Length of Visible Light 16h 07m
Length of Day
15h 00m
Full, 98% of the Moon is Illuminated
Jul 13
Full
Jul 18
Last Quarter
Jul 26
New
Aug 3
First Quarter
Aug 10
Full

Hourly Weather History & Observations

Time (EDT) Temp. Heat Index Dew Point Humidity Pressure Visibility Wind Dir Wind Speed Gust Speed Precip Events Conditions
12:53 AM 75.9 °F - 66.9 °F 74% 29.91 in 10.0 mi South 12.7 mph - N/A   Overcast
1:53 AM 75.9 °F - 66.9 °F 74% 29.89 in 10.0 mi South 12.7 mph - N/A   Overcast
2:53 AM 75.0 °F - 69.1 °F 82% 29.86 in 10.0 mi South 17.3 mph - 0.00 in Rain Light Rain
3:45 AM 75.2 °F - 69.8 °F 83% 29.84 in 8.0 mi SSW 12.7 mph 20.7 mph 0.00 in Rain Light Rain
3:53 AM 73.9 °F - 70.0 °F 87% 29.83 in 7.0 mi South 15.0 mph - 0.00 in Rain Light Rain
4:14 AM 73.4 °F - 69.8 °F 88% 29.84 in 6.0 mi South 13.8 mph - 0.01 in Rain Light Rain
4:53 AM 73.0 °F - 71.1 °F 93% 29.82 in 6.0 mi SSW 13.8 mph - 0.02 in Rain Light Rain
5:53 AM 73.0 °F - 71.1 °F 93% 29.82 in 6.0 mi SSW 16.1 mph - 0.00 in   Overcast
6:53 AM 73.9 °F - 71.1 °F 91% 29.81 in 5.0 mi SSW 16.1 mph - N/A   Mostly Cloudy
7:53 AM 73.9 °F - 71.1 °F 91% 29.81 in 5.0 mi SW 8.1 mph - 0.00 in Rain Light Rain
8:28 AM 73.4 °F - 69.8 °F 88% 29.82 in 3.0 mi WSW 9.2 mph - 0.00 in Rain Light Rain
8:53 AM 72.0 °F - 69.1 °F 91% 29.82 in 3.0 mi WSW 11.5 mph - 0.02 in   Overcast
9:37 AM 73.4 °F - 69.8 °F 88% 29.85 in 3.0 mi West 12.7 mph - N/A   Overcast
9:53 AM 73.0 °F - 69.1 °F 87% 29.84 in 3.0 mi West 12.7 mph - N/A   Overcast
10:53 AM 77.0 °F - 68.0 °F 74% 29.85 in 10.0 mi WNW 15.0 mph 21.9 mph N/A   Overcast
11:53 AM 79.0 °F - 66.9 °F 66% 29.86 in 10.0 mi WNW 12.7 mph - N/A   Overcast
12:53 PM 80.1 °F 81.7 °F 64.0 °F 58% 29.87 in 10.0 mi West 12.7 mph 19.6 mph N/A   Mostly Cloudy
1:53 PM 81.0 °F 81.7 °F 61.0 °F 50% 29.86 in 10.0 mi WSW 11.5 mph - N/A   Mostly Cloudy
2:53 PM 82.9 °F 84.0 °F 63.0 °F 51% 29.86 in 10.0 mi SW 12.7 mph 19.6 mph N/A   Mostly Cloudy
3:53 PM 84.0 °F 84.9 °F 63.0 °F 49% 29.85 in 10.0 mi West 15.0 mph 23.0 mph N/A   Mostly Cloudy
4:53 PM 84.0 °F 85.4 °F 64.0 °F 51% 29.84 in 10.0 mi WSW 12.7 mph - N/A   Scattered Clouds
5:53 PM 84.0 °F 84.5 °F 62.1 °F 47% 29.85 in 10.0 mi West 17.3 mph 20.7 mph N/A   Scattered Clouds
6:53 PM 82.9 °F 82.8 °F 59.0 °F 44% 29.85 in 10.0 mi West 11.5 mph - N/A   Scattered Clouds
7:53 PM 80.1 °F 80.6 °F 57.9 °F 47% 29.87 in 10.0 mi West 8.1 mph - N/A   Scattered Clouds
8:53 PM 77.0 °F - 55.9 °F 48% 29.88 in 10.0 mi West 6.9 mph - N/A   Scattered Clouds
9:53 PM 75.0 °F - 57.0 °F 53% 29.89 in 10.0 mi West 3.5 mph - N/A   Partly Cloudy
10:53 PM 73.0 °F - 57.9 °F 59% 29.89 in 10.0 mi Calm Calm - N/A   Clear
11:53 PM 71.1 °F - 61.0 °F 70% 29.89 in 10.0 mi South 3.5 mph - N/A   Clear